McCall, ID

2:35 PM MDT on May 25, 2017 (GMT -0600)
McCall

Weather History for KMYL - September, 2012

Change the Weather History Date:

Sunday, September 30, 2012

  Actual Average Record
Temperature  
Mean Temperature 56 °F 45 °F  
Max Temperature 74 °F 62 °F 85 °F (1963)
Min Temperature 37 °F 28 °F 18 °F (1954)
Degree Days  
Heating Degree Days 9 20  
Month to date heating degree days 254 436  
Since 1 July heating degree days 324 765  
Cooling Degree Days 0 0  
Month to date cooling degree days 0 0  
Year to date cooling degree days 172 25  
Growing Degree Days 6 (Base 50)    
Moisture  
Dew Point 32 °F    
Average Humidity 49    
Maximum Humidity 85    
Minimum Humidity 13    
Precipitation  
Precipitation 0.00 in 0.03 in 1.77 in (1967)
Month to date precipitation 0.17 0.88  
Year to date precipitation 18.31 13.92  
Sea Level Pressure  
Sea Level Pressure 30.23 in    
Wind  
Wind Speed 3 mph (WNW)    
Max Wind Speed 13 mph    
Max Gust Speed 18 mph    
Visibility 10 miles    
Events      
T = Trace of Precipitation, MM = Missing Value Source: NWS Daily Summary

Daily Weather History Graph

Daily Weather History Graph

Search for Another Location

Airport or City:

Trip Planner

Search our weather history database for the weather conditions in past years. The results will help you decide how hot, cold, wet, or windy it might be!

Date:

Astronomy

Sep. 30, 2012 Rise Set
Actual Time 7:41 AM MDT 7:25 PM MDT
Civil Twilight 7:12 AM MDT 7:54 PM MDT
Nautical Twilight 6:38 AM MDT 8:28 PM MDT
Astronomical Twilight 6:04 AM MDT 9:03 PM MDT
Moon 7:27 PM MDT (9/30) 8:20 AM MDT (9/30)
Length of Visible Light 12h 42m
Length of Day
11h 43m
Full, 100% of the Moon is Illuminated
Sep 30
Full
Oct 8
Last Quarter
Oct 15
New
Oct 21
First Quarter
Oct 29
Full

Hourly Weather History & Observations

Time (MDT) Temp. Dew Point Humidity Pressure Visibility Wind Dir Wind Speed Gust Speed Precip Events Conditions
12:51 AM 46.9 °F 36.0 °F 66% 30.17 in 10.0 mi Calm Calm - N/A   Clear
1:51 AM 44.1 °F 35.1 °F 71% 30.16 in 10.0 mi Calm Calm - N/A   Clear
2:51 AM 43.0 °F 35.1 °F 74% 30.17 in 10.0 mi Calm Calm - N/A   Clear
3:51 AM 43.0 °F 37.0 °F 80% 30.17 in 10.0 mi Calm Calm - N/A   Clear
4:51 AM 39.9 °F 35.1 °F 83% 30.19 in 10.0 mi Calm Calm - N/A   Clear
5:51 AM 39.9 °F 34.0 °F 79% 30.20 in 10.0 mi Calm Calm - N/A   Clear
6:51 AM 39.0 °F 34.0 °F 82% 30.23 in 10.0 mi Calm Calm - N/A   Clear
8:51 AM 39.0 °F 35.1 °F 86% 30.28 in 10.0 mi Calm Calm - N/A   Clear
9:51 AM 46.9 °F 39.0 °F 74% 30.28 in 10.0 mi Calm Calm - N/A   Clear
10:51 AM 55.0 °F 39.9 °F 57% 30.28 in 10.0 mi Calm Calm - N/A   Clear
11:51 AM 61.0 °F 39.0 °F 44% 30.26 in 10.0 mi Calm Calm - N/A   Clear
12:51 PM 69.1 °F 26.1 °F 20% 30.23 in 10.0 mi Variable 5.8 mph - N/A   Clear
1:51 PM 71.1 °F 19.9 °F 14% 30.23 in 10.0 mi WNW 8.1 mph - N/A   Clear
2:51 PM 72.0 °F 17.1 °F 12% 30.22 in 10.0 mi West 9.2 mph - N/A   Clear
3:51 PM 72.0 °F 32.0 °F 23% 30.22 in 10.0 mi West 9.2 mph - N/A   Clear
4:51 PM 73.0 °F 30.0 °F 20% 30.21 in 10.0 mi West 8.1 mph - N/A   Clear
5:51 PM 72.0 °F 28.9 °F 20% 30.22 in 10.0 mi WNW 8.1 mph - N/A   Clear
6:51 PM 69.1 °F 27.0 °F 21% 30.24 in 10.0 mi West 6.9 mph - N/A   Clear
7:51 PM 64.0 °F 28.0 °F 26% 30.28 in 10.0 mi NNW 8.1 mph - N/A   Clear
8:51 PM 61.0 °F 28.0 °F 29% 30.30 in 10.0 mi NW 6.9 mph - N/A   Clear
9:51 PM 57.9 °F 28.9 °F 33% 30.30 in 10.0 mi North 3.5 mph - N/A   Clear
10:51 PM 55.9 °F 33.1 °F 42% 30.28 in 10.0 mi NNW 3.5 mph - N/A   Clear
11:51 PM 53.1 °F 33.1 °F 47% 30.28 in 10.0 mi Calm Calm - N/A   Clear